Theta_e
355 355 356 349 332 329 317 320 328 325 326 334 334 332 329 336 329 326 348 353 353 352 351 360 364 361 361 361 363 364 363 363 362 361 361 361 362 363 362 362 363 364 364 363 363 363 363 363 361
358 354 353 341 324 312 314 324 321 327 330 334 333 332 330 330 342 343 345 353 351 352 352 358 363 364 363 362 362 361 362 362 362 361 361 361 362 362 361 361 363 364 364 363 363 362 361 361 361
357 353 342 332 323 313 317 324 327 330 332 330 329 334 333 332 341 344 351 354 354 353 355 359 361 360 361 361 361 362 362 362 362 361 360 361 361 361 361 360 362 363 362 363 363 361 361 360 360
351 345 340 326 316 324 322 326 330 329 330 332 331 329 338 345 342 347 352 354 355 357 352 354 357 358 357 359 358 358 359 360 357 356 357 361 360 358 361 362 364 365 364 363 361 361 360 360 358
345 337 324 320 317 323 328 329 330 326 327 329 329 328 333 343 346 348 350 351 349 351 355 355 356 357 358 357 356 357 354 354 353 354 356 358 360 355 361 363 364 362 362 361 360 359 357 356 355
335 336 319 314 318 325 328 331 329 328 328 328 328 328 335 344 344 346 348 349 351 349 352 354 356 357 357 357 357 355 356 352 353 355 354 357 359 358 362 362 362 361 360 359 357 356 355 354 355
330 327 318 318 320 321 327 332 327 326 326 328 332 327 337 338 345 347 348 350 349 352 349 353 352 356 357 357 354 353 353 355 354 356 354 358 360 362 362 361 362 360 359 358 357 356 355 355 356
337 331 321 321 320 320 329 330 331 328 328 335 335 325 330 340 344 346 347 346 349 350 350 353 355 356 359 356 355 352 350 352 353 351 355 358 360 362 363 364 361 360 358 357 357 357 358 359 359
339 323 317 320 321 323 331 327 333 335 331 332 334 335 343 344 343 342 342 342 346 348 349 351 357 354 355 356 355 353 351 352 352 353 357 359 359 360 360 363 361 360 358 358 358 359 361 362 364
330 323 322 329 329 326 329 328 329 328 329 330 333 339 343 341 340 341 341 343 345 345 349 354 355 350 352 353 349 346 350 351 353 353 354 364 360 358 357 362 360 359 359 360 360 361 362 362 354
329 324 330 330 332 332 328 329 333 328 324 329 330 335 340 340 341 342 340 341 344 345 349 354 352 353 349 348 346 346 345 352 355 357 359 361 355 355 351 353 352 357 358 356 356 357 357 356 357
324 330 332 332 334 332 329 331 328 330 328 334 335 338 339 338 337 338 336 338 341 343 346 349 354 351 347 350 346 342 343 351 352 354 357 358 354 357 353 351 353 353 349 356 359 359 359 359 358
326 329 331 333 333 332 333 329 328 329 332 336 337 337 337 336 336 339 340 341 340 339 343 348 353 353 351 349 345 343 347 348 352 353 358 354 352 352 350 353 350 353 356 356 358 358 359 358 355
330 330 330 331 332 332 328 329 332 332 335 333 334 334 336 336 336 338 338 340 340 342 342 345 352 353 352 354 352 355 351 349 348 351 352 355 356 353 351 351 351 355 355 358 358 360 358 357 354
330 325 329 330 330 330 328 324 325 332 334 331 332 333 335 336 337 337 340 340 342 343 344 348 350 353 353 351 358 356 353 348 353 352 356 356 358 359 357 352 353 355 360 365 363 358 358 359 356
325 325 317 326 330 330 328 317 328 333 332 329 330 332 334 336 336 338 340 341 343 343 346 348 347 349 349 350 352 352 352 354 356 353 353 357 359 360 361 353 352 358 361 356 353 352 353 354 352
322 311 313 321 328 326 326 320 327 332 331 328 329 331 332 335 336 339 341 342 345 347 347 346 347 347 348 345 351 351 353 356 354 354 352 358 360 361 360 351 355 363 354 352 349 357 355 349 350
310 311 314 314 326 325 324 320 324 327 330 329 329 330 331 332 336 340 341 342 346 347 345 344 347 350 349 349 352 350 351 351 355 355 357 360 358 359 361 352 358 362 350 350 356 360 356 353 350
314 313 312 317 323 323 324 322 324 327 327 329 329 329 331 332 338 341 341 341 344 347 345 345 347 350 347 344 347 347 346 348 352 353 357 359 358 358 362 354 359 362 363 363 358 356 360 346 351
314 312 312 319 323 324 323 323 327 327 327 330 328 329 332 333 337 340 340 340 341 345 346 348 347 348 348 345 350 351 348 352 352 350 356 358 357 358 359 364 361 361 357 360 360 359 349 346 351
313 311 311 313 319 325 324 316 326 328 329 330 332 333 333 333 335 338 339 340 339 343 346 348 348 349 351 355 357 357 352 355 348 353 351 355 358 356 361 363 364 362 362 355 359 358 357 345 348
310 314 314 314 315 311 324 308 316 325 325 329 328 332 332 334 336 338 339 339 340 341 344 348 350 351 351 355 356 354 347 344 347 350 351 354 357 356 358 361 361 363 359 366 357 355 358 357 348
312 316 316 315 313 314 309 313 314 324 322 326 329 331 333 334 334 337 339 340 341 343 342 344 350 354 356 355 358 353 356 349 352 351 353 360 364 358 355 360 362 362 358 364 361 360 362 358 351
317 315 316 317 315 306 311 310 311 313 320 326 331 331 332 334 336 338 341 342 342 344 345 345 349 356 355 355 353 357 357 354 349 352 349 349 353 355 361 359 363 364 361 360 357 362 362 363 361
316 312 305 304 304 301 313 309 312 319 322 324 328 333 333 335 335 338 339 341 342 343 345 346 350 352 353 351 352 353 355 357 356 354 349 357 350 351 363 365 363 359 363 363 362 365 363 360 359
313 313 306 300 300 303 313 307 313 320 325 328 329 331 335 335 336 337 339 341 343 343 345 347 349 352 352 352 357 360 359 352 351 355 352 347 350 347 358 361 361 362 362 363 363 357 355 365 357
311 308 314 308 308 304 307 311 316 322 324 327 327 327 331 335 336 337 340 342 343 345 346 349 352 353 353 352 355 359 359 357 354 361 355 350 362 351 359 358 359 362 362 365 368 356 362 359 361
311 314 308 309 301 299 304 307 309 317 321 324 324 326 328 332 336 337 340 342 344 346 346 348 349 352 354 354 355 355 356 358 359 358 361 360 359 362 363 360 358 360 361 362 363 361 366 360 357
310 308 310 310 308 301 300 306 316 317 320 323 325 327 330 332 335 338 339 342 345 346 346 347 349 352 353 353 357 357 355 356 358 355 357 359 358 361 362 362 360 359 359 359 362 362 361 358 361
314 312 312 305 305 308 307 307 318 320 321 323 327 329 332 335 337 339 340 342 344 346 346 349 352 350 353 357 360 356 357 358 355 357 358 362 363 361 363 363 364 361 359 361 362 358 357 359 358
Wind_Speed
11 12 7 6 6 6 3 4 7 7 9 13 10 12 12 12 8 6 14 12 20 18 16 13 10 10 10 11 13 13 12 12 10 9 8 8 9 9 9 11 11 12 13 13 12 12 11 11 9
11 4 6 7 4 6 3 7 9 12 11 7 5 3 4 12 15 11 12 11 12 18 14 14 8 8 10 9 10 10 11 10 9 8 8 7 7 7 10 11 11 12 12 12 12 11 11 9 8
13 5 9 7 0 6 5 9 13 9 5 2 4 6 5 10 4 8 17 15 13 13 14 12 10 7 7 8 8 8 8 7 7 6 6 6 7 7 10 11 11 10 11 11 11 9 9 9 8
5 7 7 11 6 5 5 9 9 8 5 4 3 12 9 11 4 7 16 17 14 10 12 14 10 8 6 5 4 4 6 5 4 2 4 6 6 5 7 9 10 11 11 10 10 9 8 7 6
8 8 9 10 7 1 11 7 3 3 6 6 5 10 7 13 5 13 14 15 15 11 11 13 13 11 12 9 8 10 9 9 5 2 5 3 12 11 8 10 10 10 9 9 9 7 5 4 2
8 3 6 5 7 3 5 7 3 6 7 5 2 2 9 10 13 12 11 12 17 16 16 13 15 12 13 13 12 9 8 4 6 9 7 9 10 9 9 9 10 9 8 8 7 5 4 2 2
7 7 8 2 5 2 5 6 2 6 1 12 2 6 10 11 13 13 12 13 16 3 15 14 12 12 14 13 11 9 10 11 7 15 13 11 11 12 10 10 9 8 7 6 4 3 3 3 5
8 6 4 6 3 8 1 4 6 6 13 5 7 2 9 16 17 12 15 13 11 12 9 12 14 11 9 10 13 11 5 2 5 8 9 10 11 12 12 10 9 7 5 4 3 4 5 6 8
8 4 4 3 1 6 4 2 2 2 6 5 4 8 20 12 17 14 11 8 14 10 10 10 11 9 9 10 11 12 5 6 9 3 10 9 7 10 13 8 10 5 4 4 5 6 8 11 14
4 3 5 7 6 3 7 3 4 7 7 7 8 11 16 13 9 9 7 7 6 8 6 7 10 11 9 8 8 6 6 4 4 7 6 7 9 5 8 11 7 5 7 9 9 9 12 15 12
6 7 9 6 5 8 2 4 9 8 7 7 10 13 16 15 12 13 13 14 16 11 9 10 11 10 11 7 6 2 2 4 5 7 7 5 8 6 6 6 7 8 12 9 10 11 9 2 8
5 6 4 5 6 6 6 1 8 1 8 9 11 12 16 18 16 16 7 10 10 11 9 11 12 12 12 6 6 7 6 4 3 4 6 5 3 5 2 3 5 1 5 2 3 1 4 4 3
7 6 4 4 4 4 4 6 7 4 5 9 13 12 12 11 11 8 9 10 7 6 7 11 12 11 10 11 9 10 7 6 8 6 11 5 4 3 5 3 4 1 2 3 3 4 2 3 5
5 1 3 3 2 4 6 6 12 9 10 11 12 12 11 10 9 9 4 8 9 7 9 11 11 10 12 7 9 6 8 4 7 8 7 3 2 3 5 5 5 4 2 2 3 3 4 4 3
4 9 6 8 6 5 1 7 4 20 12 11 12 10 11 10 8 8 7 5 8 9 8 11 10 11 12 9 8 5 3 7 5 5 8 6 3 4 2 5 3 3 2 4 8 5 3 5 5
7 6 7 9 11 9 8 4 5 6 10 12 11 10 10 11 11 7 8 5 13 12 11 13 11 14 12 6 5 5 4 4 4 5 8 6 2 4 7 4 4 4 5 8 2 5 1 9 3
12 5 5 9 8 2 10 5 7 7 9 10 12 12 11 11 12 9 10 7 16 12 12 12 11 11 12 4 3 4 5 3 5 5 8 6 6 6 8 5 4 5 5 1 7 1 3 11 8
8 10 8 5 10 8 9 6 11 11 10 12 12 13 12 11 11 13 11 11 14 15 14 10 8 13 8 6 4 5 5 5 6 1 4 8 5 6 6 4 3 7 5 4 6 7 6 8 7
10 9 9 6 4 7 9 7 18 17 13 15 13 13 13 12 12 13 12 13 12 15 17 15 9 10 8 6 7 5 6 6 2 3 7 7 3 5 7 6 5 7 3 5 2 6 9 8 8
10 12 8 6 4 10 6 7 10 17 16 15 14 16 16 18 16 15 14 14 15 14 14 15 13 12 11 10 7 3 5 2 6 5 6 7 6 7 7 6 6 6 5 2 2 4 8 10 2
13 8 9 9 7 7 7 10 15 16 17 18 19 20 16 18 19 17 16 15 17 16 16 14 15 14 12 6 6 4 5 7 5 5 6 8 7 8 7 4 4 2 7 5 4 4 5 10 6
15 7 9 11 13 1 17 3 14 17 19 18 18 20 19 18 17 16 18 17 16 18 16 17 15 15 13 10 10 8 6 9 7 6 7 9 9 8 8 6 5 4 5 5 3 7 6 3 8
13 8 12 11 15 15 8 12 10 17 17 17 20 19 19 17 16 20 19 19 18 17 17 16 16 14 14 13 10 9 11 5 2 4 4 3 8 8 8 8 7 6 6 4 5 5 5 6 7
11 13 17 16 15 11 12 9 7 5 2 14 19 20 19 18 19 16 18 19 17 18 17 17 17 14 14 15 15 11 9 8 7 6 5 6 8 9 9 7 6 7 6 5 5 6 6 7 7
11 15 15 10 9 7 18 8 11 9 5 5 10 20 21 19 18 20 18 18 18 20 18 17 18 16 16 16 15 14 11 10 8 6 8 3 4 2 11 9 6 7 7 7 5 5 7 5 7
15 14 13 14 10 12 9 3 6 1 5 1 7 7 21 21 19 20 19 18 18 19 19 19 19 17 17 16 14 12 13 9 10 10 9 8 8 6 10 10 7 8 8 8 7 7 8 8 7
16 17 13 16 17 14 7 4 6 8 7 7 6 6 11 19 21 20 20 20 18 19 19 18 19 18 18 18 14 13 12 13 10 10 10 5 8 6 3 4 5 7 8 8 7 8 8 4 6
16 17 11 11 13 13 6 9 6 10 10 7 5 7 6 10 17 18 19 19 18 18 18 18 18 19 18 18 16 14 15 14 12 9 9 9 8 9 6 6 8 7 7 7 5 10 6 6 7
9 13 14 15 13 13 10 5 8 2 1 7 7 4 7 8 12 17 17 18 18 18 20 18 17 16 17 17 16 16 15 15 14 13 11 11 11 9 9 9 10 9 9 8 8 8 8 7 6
14 16 15 13 17 11 13 11 10 7 2 3 10 6 9 8 10 13 15 16 16 16 16 18 16 17 16 15 13 16 15 15 16 14 14 13 12 12 10 11 11 10 10 9 9 10 10 5 9
Wind_Direction
190 210 240 245 253 190 139 127 119 107 80 56 41 20 57 55 16 78 99 114 132 136 133 138 135 133 134 127 127 126 124 124 125 123 121 118 122 122 126 122 117 116 124 118 117 116 122 121 124
252 239 245 263 251 357 51 75 90 61 75 98 110 118 142 91 85 121 115 132 138 136 135 129 128 130 125 114 121 123 128 130 132 143 144 143 128 135 119 115 120 117 119 121 123 124 127 127 129
250 303 258 263 233 192 81 87 94 88 91 28 109 341 6 58 91 94 117 121 93 106 121 107 120 116 125 121 123 128 132 139 140 140 141 144 146 134 125 129 125 126 128 124 118 124 127 128 129
248 193 230 260 66 27 90 95 116 132 122 46 333 102 106 40 88 122 147 131 113 100 101 103 62 103 102 76 83 89 93 76 80 135 141 147 140 108 133 121 122 122 123 118 122 127 126 124 123
242 254 265 245 16 96 105 102 149 141 61 55 335 100 71 73 102 117 140 139 135 110 95 113 102 94 73 71 64 81 80 77 25 103 34 198 159 162 153 141 132 126 126 128 125 128 131 125 143
261 223 309 319 118 231 124 148 140 87 61 71 178 115 100 156 126 148 146 126 149 148 138 117 125 120 101 86 71 70 47 95 216 117 158 244 169 164 155 137 137 132 137 131 135 138 140 157 205
321 315 257 289 170 142 109 96 231 80 151 65 335 39 102 116 145 154 131 153 95 119 147 143 149 139 122 113 106 68 44 356 172 163 176 220 172 165 160 157 142 143 150 143 145 153 177 213 230
278 252 348 119 165 23 222 150 44 320 79 96 326 65 145 143 153 144 149 149 148 124 139 140 143 137 125 123 124 117 80 338 227 122 224 184 167 157 169 152 148 156 165 172 182 206 224 234 234
277 270 314 342 29 312 24 45 115 356 145 54 48 27 107 158 147 163 157 165 155 144 143 148 132 132 128 127 129 115 130 138 67 274 212 174 193 177 165 109 142 163 195 216 224 236 248 249 239
348 350 350 354 330 310 180 230 219 212 165 117 103 102 118 135 159 152 161 157 151 148 154 117 142 137 126 127 115 114 144 175 153 225 199 191 212 208 186 124 159 193 220 229 226 233 241 247 249
326 4 340 300 301 312 88 255 312 244 10 191 114 133 132 140 168 175 185 182 176 159 151 143 131 135 142 130 125 151 199 215 173 178 225 170 187 184 167 143 188 188 208 206 206 208 232 296 344
295 32 28 308 302 269 236 26 277 199 205 95 120 143 149 173 178 195 164 76 109 146 168 145 145 147 143 148 143 186 201 209 195 134 238 195 214 207 85 182 111 322 174 106 283 41 15 341 327
13 16 339 26 277 283 277 244 227 183 104 106 126 156 160 172 153 150 147 130 132 178 148 146 145 151 150 152 177 200 183 194 216 173 216 209 204 199 197 93 205 343 59 98 250 275 42 336 270
16 333 350 114 164 214 213 228 236 139 145 130 146 165 161 167 161 118 146 129 163 193 167 119 157 153 153 192 179 203 216 152 184 196 148 219 270 167 128 178 160 125 164 247 283 21 301 281 348
287 276 198 152 177 157 162 264 199 226 148 144 169 174 150 165 159 164 158 157 156 162 171 131 160 153 154 151 185 194 141 229 171 118 137 182 254 154 221 162 195 136 148 243 223 251 210 259 229
258 281 177 135 180 165 205 170 158 164 189 169 164 171 166 166 163 162 144 136 121 141 142 166 159 152 135 158 203 221 184 284 192 162 153 161 177 170 242 165 162 138 242 234 97 266 273 335 298
241 330 23 144 192 193 226 139 231 214 200 206 175 167 175 179 164 165 146 150 139 138 147 155 159 138 138 177 216 237 317 227 245 174 150 165 172 178 262 219 147 203 231 328 274 286 337 189 271
346 325 321 353 149 209 232 162 177 195 239 211 191 169 180 175 185 160 162 141 144 146 157 152 174 135 143 187 167 226 224 324 290 139 110 146 186 193 244 182 140 243 226 223 20 335 343 275 290
291 296 297 52 133 231 234 190 184 180 191 242 197 183 189 175 189 161 168 152 157 156 154 170 157 152 157 182 171 172 224 188 245 218 96 140 195 191 225 193 194 252 358 17 345 287 260 301 14
285 273 12 147 210 218 258 255 232 183 200 200 210 217 194 175 183 163 174 166 162 163 164 157 169 171 180 193 185 170 220 294 214 202 149 210 166 179 207 275 185 216 137 180 287 299 305 287 59
268 352 343 315 277 236 268 344 247 210 191 218 205 226 202 189 177 167 179 181 167 166 170 171 170 172 196 185 129 155 223 235 167 190 189 195 186 191 242 222 334 155 303 176 218 247 294 302 315
291 12 307 289 286 151 223 116 326 192 200 198 217 211 223 195 180 177 177 185 183 170 178 171 178 175 189 219 167 176 201 218 177 210 211 149 190 197 202 209 239 240 273 13 257 231 302 278 302
294 325 308 293 293 290 34 276 221 161 187 199 204 224 214 214 188 181 179 182 183 178 177 178 182 183 184 196 241 198 241 207 149 225 79 176 167 206 210 205 214 233 246 235 281 313 264 306 293
289 276 261 249 247 249 255 325 86 206 131 177 190 206 216 211 196 188 179 176 188 179 180 178 180 185 195 188 205 231 225 257 212 190 201 171 189 187 213 201 216 227 253 237 250 240 262 279 316
234 258 269 255 218 265 224 286 142 223 36 188 181 185 201 212 204 183 188 181 185 178 185 179 181 190 192 196 202 213 221 227 246 256 216 213 300 249 170 199 212 217 223 271 260 237 273 256 267
242 253 292 309 311 336 185 281 114 54 82 174 155 188 182 204 205 192 184 188 181 187 187 186 180 190 195 199 199 202 211 219 220 204 265 219 208 140 235 178 222 216 252 227 245 237 236 220 225
241 257 285 290 286 261 262 144 214 103 105 146 182 161 188 186 192 208 180 187 186 186 190 191 177 191 196 200 200 202 206 224 217 229 202 213 237 255 265 184 229 241 243 242 255 240 267 233 228
262 270 247 221 258 266 287 314 243 162 110 136 163 167 194 195 190 196 181 189 184 184 193 194 192 190 197 203 200 202 205 209 230 217 232 217 239 215 281 205 224 228 231 222 233 286 232 230 255
182 233 252 275 295 312 289 47 6 298 184 172 173 167 157 188 194 189 185 182 186 193 189 190 199 193 198 205 195 205 204 204 210 220 212 224 230 235 215 220 234 230 223 228 225 239 277 253 267
250 266 220 227 233 246 296 292 179 143 140 246 151 148 139 168 178 183 191 183 185 196 197 180 197 197 200 204 202 198 204 208 201 212 213 213 220 222 225 224 228 235 233 226 225 229 251 246 236